W6DSP Weather Reports


Display with metric or nautical units.
time (UTC)temp
F
wind
direction
speed
MPH
gust
MPH
rain 1hr
in
rain 24hr
in
rain mn
in
humidity
%
barometer
mb
20260902005710 79 315 0.0 0.0 0.00 0.00 0.00 91 1014.8
20260902003240 80 315 0.0 0.0 0.00 0.00 0.00 91 1014.8
20260902002004 81 315 0.0 0.0 0.00 0.00 0.00 90 1014.7
20260901224403 86 311 0.0 0.0 0.00 0.00 0.00 86 1014.8
20260901223154 87 311 0.0 0.0 0.00 0.00 0.00 84 1014.6
20260901220846 89 309 0.0 2.0 0.00 0.00 0.00 80 1014.7
20260901215704 90 311 0.0 3.0 0.00 0.00 0.00 75 1014.7
20260901214427 90 300 0.0 1.0 0.00 0.00 0.00 76 1014.7
20260901212045 91 339 0.0 3.0 0.00 0.00 0.00 74 1014.7
20260901204452 89 329 0.0 3.0 0.00 0.00 0.00 73 1014.9
20260901202104 89 51 0.0 3.0 0.00 0.00 0.00 78 1014.9
20260901193141 88 351 0.0 2.0 0.00 0.00 0.00 75 1015.1
20260901190737 88 183 0.0 9.0 0.00 0.00 0.00 72 1015.2
20260901185507 89 89 0.0 9.0 0.00 0.00 0.00 71 1015.3
20260901184235 88 229 1.0 7.0 0.00 0.00 0.00 73 1015.4
20260901181748 90 49 1.0 8.0 0.00 0.01 0.00 71 1015.3
20260901173011 87 209 1.0 9.0 0.00 0.01 0.00 74 1015.5
20260901171827 87 138 1.0 9.0 0.00 0.01 0.00 74 1015.7
20260901164332 87 108 1.0 11.0 0.00 0.01 0.00 72 1015.6
20260901161938 87 239 1.0 11.0 0.00 0.01 0.00 75 1015.8
20260901160744 86 84 1.0 11.0 0.00 0.01 0.00 77 1015.7
20260901154252 82 130 0.0 3.0 0.00 0.01 0.00 83 1015.9
20260901151939 80 156 0.0 3.0 0.00 0.01 0.00 84 1015.8
20260901150746 80 47 0.0 3.0 0.00 0.01 0.00 83 1015.9
20260901145610 79 142 0.0 3.0 0.00 0.01 0.00 84 1015.9
20260901144416 79 127 0.0 3.0 0.00 0.01 0.00 85 1015.9
20260901143222 79 121 0.0 3.0 0.00 0.01 0.00 83 1016.0
20260901142047 78 316 0.0 2.0 0.00 0.01 0.00 84 1016.4
20260901130748 78 244 0.0 4.0 0.00 0.01 0.00 85 1016.3
20260901123247 76 281 0.0 4.0 0.00 0.01 0.00 87 1016.5
20260901114448 73 301 0.0 1.0 0.00 0.01 0.00 91 1016.0
20260901113253 73 300 0.0 2.0 0.00 0.01 0.00 91 1015.9
20260901104512 72 285 0.0 0.0 0.00 0.01 0.00 92 1015.5
20260901093308 72 107 0.0 1.0 0.00 0.01 0.00 91 1015.4
20260901092049 72 107 0.0 0.0 0.00 0.01 0.00 91 1015.2
20260901084517 72 107 0.0 1.0 0.00 0.01 0.00 90 1015.1
20260901083307 73 15 0.0 0.0 0.00 0.01 0.00 90 1015.0
20260901080844 73 18 0.0 1.0 0.00 0.01 0.00 90 1015.0
20260901074534 74 17 0.0 1.0 0.00 0.01 0.00 89 1014.9
20260901073340 74 140 0.0 1.0 0.00 0.01 0.00 88 1014.9
20260901070907 74 244 0.0 3.0 0.00 0.01 0.00 89 1014.9
20260901065725 75 340 0.0 0.0 0.00 0.01 0.00 88 1015.0
20260901054451 76 28 0.0 2.0 0.00 0.01 0.00 86 1015.1
20260901053229 76 67 0.0 3.0 0.00 0.01 0.00 87 1015.2
20260901045746 76 301 0.0 3.0 0.00 0.01 0.00 87 1015.0
20260901044549 75 244 0.0 2.0 0.00 0.01 0.00 88 1015.1
20260901043343 75 198 0.0 2.0 0.00 0.01 0.00 88 1015.3
20260901040944 76 190 0.0 0.0 0.00 0.01 0.00 87 1015.1
20260901034507 78 288 0.0 2.0 0.00 0.01 0.01 83 1014.8
20260901030927 78 126 1.0 6.0 0.00 0.01 0.01 83 1014.2
20260901024528 78 130 0.0 8.0 0.00 0.01 0.01 82 1015.1
20260901023312 78 148 0.0 8.0 0.00 0.01 0.01 83 1015.3
20260901022115 78 106 0.0 8.0 0.00 0.01 0.01 83 1015.2
20260901020856 78 275 0.0 3.0 0.00 0.01 0.01 85 1015.5